Regional Weather Roundup
Issued by NWS

Home | Current Version | Previous Version | Graphics & Text | Print | Product List | Glossary On
Versions: 1 2 3 4 5 6 7 8 9 10 11 12 13 14 15 16 17 18 19 20 21 22 23 24 25 26 27 28 29 30 31 32 33 34 35 36 37 38 39 40 41 42 43 44 45 46 47 48 49 50
000
ASUS43 KMPX 242201
RWRMN
WEATHER ROUNDUP FOR MINNESOTA
NATIONAL WEATHER SERVICE TWIN CITIES/CHANHASSEN MN
500 PM CDT SUN JUL 24 2016


NOTE: "FAIR" INDICATES FEW OR NO CLOUDS BELOW 12,000 FEET WITH NO
SIGNIFICANT WEATHER AND/OR OBSTRUCTIONS TO VISIBILITY. N/A MEANS
CURRENT SKY AND/OR WEATHER CONDITIONS ARE NOT AVAILABLE.

MNZ060>063-068>070-242300-
   Twin Cities Metro

CITY           SKY/WX    TMP DP  RH WIND       PRES   REMARKS
TWIN CITIES    MOSUNNY   84  61  45 NW18G26   29.94R
ST PAUL        SUNNY     83  62  49 W17       29.93R
CRYSTAL        SUNNY     82  60  47 W13G24    29.92S
BLAINE         MOSUNNY   84  63  48 W15G24    29.93R
LAKEVILLE      MOSUNNY   81  64  57 W12G18    29.95S
EDEN PRAIRIE   MOSUNNY   83  62  49 W12G23    29.94S
LAKEVILLE      MOSUNNY   81  64  57 W12G18    29.95S
SOUTH ST PAUL  SUNNY     83  61  47 W15       29.93S
LAKE ELMO      FAIR      82  64  54 W12       29.94R
$$
MNZ001>005-007-008-013>017-022>024-027-028-242300-
   Northwest Minnesota

CITY           SKY/WX    TMP DP  RH WIND       PRES   REMARKS
BEMIDJI        SUNNY     79  59  50 W18G28    29.90R
HALLOCK        SUNNY     79  63  57 NW12      29.87R
ROSEAU         SUNNY     77  64  65 NW14G20   29.85R
WARROAD        SUNNY     75  64  69 W14G24    29.83F
THIEF RVR FALL MOSUNNY   77  62  59 W16G23    29.90R
CROOKSTON      MOSUNNY   81  63  54 NW16      29.90S
FOSSTON        SUNNY     79  61  53 W16       29.92R
DETROIT LAKES  SUNNY     77  59  53 NW12G17   29.96R
MOORHEAD       SUNNY     81  55  41 NW16G26   29.94S
PARK RAPIDS    MOSUNNY   81  60  48 NW14      29.92R
MAHNOMEN       FAIR      77  61  56 W13G23    29.92S
$$
MNZ006-009>011-018-025>026-242300-
   North Central Minnesota

CITY           SKY/WX    TMP DP  RH WIND       PRES   REMARKS
BAUDETTE       MOSUNNY   78  59  51 W17G30    29.83R
FLAG ISLAND    MOSUNNY   75  57  53 W22G28    29.79S
INTL FALLS     PTSUNNY   75  59  57 W14G23    29.81R
WASKISH        MOSUNNY   79  63  57 W16G23    29.86R
BIG FORK       MOSUNNY   79  57  47 W12G18    29.85S
LONGVILLE      PTSUNNY   77  61  57 W5        29.90R
GRAND RAPIDS   MOSUNNY   77  60  55 W9G21     29.90R
CRANE LAKE     MOSUNNY   75  59  57 W3        29.81S
ORR            MOSUNNY   79  57  47 W8        29.80S
COOK           PTSUNNY   75  61  60 W10G20    29.84R
WALKER         FAIR      78  62  57 W13G20    29.90S
$$
MNZ012-019>021-037-242300-
   Northeast Minnesota

CITY           SKY/WX    TMP DP  RH WIND       PRES   REMARKS
DULUTH         MOSUNNY   78  60  53 NW17G23   29.86R
ELY            PTSUNNY   77  57  50 W14G22    29.82R
HIBBING        SUNNY     75  58  55 NW14G22   29.86R
EVELETH        CLOUDY    79  55  44 W14G20    29.86R
DULUTH HARBOR  MOSUNNY   81  64  57 W13       29.83R
TWO HARBORS    SUNNY     81  64  57 W6        29.81R
SILVER BAY     MOSUNNY   81  59  47 W8        29.79S
GRAND MARAIS     N/A     83  57  41 W9G16     29.73R
G MARAIS ARPRT MOSUNNY   73  55  53 W13G18    29.81S
$$
MNZ029>031-032-039>041-046>048-054>057-064-242300-
   West Central Minnesota

CITY           SKY/WX    TMP DP  RH WIND       PRES   REMARKS
FERGUS FALLS   MOSUNNY   79  57  47 NW20      29.96S
WHEATON        MOSUNNY   82  63  51 W13G21    29.98F
MORRIS         MOSUNNY   84  59  42 NW15      29.96S
ALEXANDRIA     MOSUNNY   80  57  45 W17G23    29.98S
ELBOW LAKE     FAIR      78  59  51 NW13G18   29.98S
WADENA         MOSUNNY   77  61  57 W13G22    29.94S
GLENWOOD       MOSUNNY   79  61  53 W12       29.98S
APPLETON       PTSUNNY   81  61  50 W8        29.97F
BENSON         MOSUNNY   81  61  50 W8        29.97F
ORTONVILLE     PTSUNNY   82  55  39 W13G18    29.98S
MADISON        PTSUNNY   81  59  47 W8        29.99S
WILLMAR        FAIR      79  66  65 W9        29.99F
$$
MNZ033>034-036-042>043-049>051-058-059-242300-
   Central Minnesota

CITY           SKY/WX    TMP DP  RH WIND       PRES   REMARKS
ST CLOUD       MOSUNNY   80  63  55 W13       29.94R
SAUK CENTRE    MOCLDY    77  63  61 W14       29.96F
PAYNESVILLE    MOSUNNY   78  62  57 W16G22    29.97F
AITKIN         MOSUNNY   81  55  41 W7        29.90R
PINE RIVER     MOSUNNY   77  63  61 W5        29.95R
BRAINERD       PTSUNNY   80  59  48 W16G23    29.92R
STAPLES        MOSUNNY   79  55  44 W16G23    29.94R
LONG PRAIRIE   FAIR      79  59  50 W12G21    29.96S
LITTLE FALLS   PTSUNNY   79  59  50 W10G16    29.94S
LITCHFIELD     PTSUNNY   79  66  65 W10       29.97F
BUFFALO        MOSUNNY   80  60  49 W13G22    29.96S
MAPLE LAKE     MOSUNNY   81  64  57 W9G17     29.97S
HUTCHINSON     SUNNY     79  67  66 W16       29.99S
$$
MNZ037-044-045-052-053-242300-
   East Central Minnesota

CITY           SKY/WX    TMP DP  RH WIND       PRES   REMARKS
PRINCETON      MOSUNNY   82  63  51 W13G18    29.94R
MORA           MOSUNNY   79  59  50 W7G21     29.93S
CAMBRIDGE      MOSUNNY   84  64  51 W14G21    29.92R
RUSH CITY      SUNNY     81  62  53 W13G18    29.92R
MOOSE LAKE     MOSUNNY   77  61  57 W9        29.88R
HINCKLEY       FAIR      81  63  54 W8        29.91R
CLOQUET        PTSUNNY   79  57  47 W15       29.88R
MCGREGOR       MOSUNNY   79  59  50 W13G18    29.90R
$$
MNZ071>073-080-081-089-090-097-098-242300-
   Southwest Minnesota

CITY           SKY/WX    TMP DP  RH WIND       PRES   REMARKS
MONTEVIDEO     CLOUDY    82  64  54 N9        30.00F
GRANITE FALLS  CLOUDY    81  66  61 W12       30.00F
CANBY          PTSUNNY   82  60  46 W12G20    30.01S
MARSHALL       CLOUDY    80  64  58 W10       30.01R
REDWOOD FALLS  CLOUDY    79  62  56 NW9       29.98F
OLIVIA         CLOUDY    77  63  61 W14       29.98F
PIPESTONE      CLOUDY    77  63  61 NW12      30.04S
WINDOM         CLOUDY    75  64  69 NW7       30.02F
WORTHINGTON    CLOUDY    74  65  73 NW7       30.03F
JACKSON        CLOUDY    73  63  68 NW5       30.01F
TRACY          CLOUDY    78  67  68 W6        30.01F
SLAYTON        RAIN      77  63  62 W10       30.04S
$$
MNZ065>067-074>077-082>085-091>093-242300-
   South Central Minnesota

CITY           SKY/WX    TMP DP  RH WIND       PRES   REMARKS
MANKATO        CLOUDY    77  63  61 NW10      29.98F
NEW ULM        CLOUDY    77  63  61 NW12      29.98F
ST JAMES       CLOUDY    72  61  68 W6        30.00F
FAIRMONT       CLOUDY    75  48  38 NW7       29.98F
GLENCOE        PTSUNNY   79  66  65 W13G20    29.97S
FARIBAULT      CLOUDY    79  64  61 W12       29.98S
OWATONNA       PTSUNNY   79  64  61 W13       29.98F
WASECA         CLOUDY    75  64  69 NW10      29.99F
ALBERT LEA     CLOUDY    75  64  69 NW5       29.99F
$$
MNZ078>079-086>088-094>096-242300-
   Southeast Minnesota

CITY           SKY/WX    TMP DP  RH WIND       PRES   REMARKS
ROCHESTER      MOSUNNY   79  64  60 W16G26    29.98R
RED WING       MOSUNNY   84  63  48 W13       29.91S
STANTON        MOSUNNY   81  63  54 W16       29.95R
DODGE CENTER   CLOUDY    79  63  57 NW13G18   29.99R
WINONA         SUNNY     82  61  47 W15G21    29.92R
AUSTIN         CLOUDY    79  63  57 W15       29.99S
PRESTON        MOSUNNY   79  63  57 NW16      29.98R
$$
ABBREVIATIONS USED IN REMARKS
   TC - TEMPERATURES IN CELSIUS
  WCI - WIND CHILL INDEX
   HX - HEAT INDEX
  VSB - VISIBILITY
$$




USA.gov is the U.S. government's official web portal to all federal, state and local government web resources and services.